Regional Weather Roundup
Issued by NWS

Home | Current Version | Previous Version | Text Only | Print | Product List | Glossary Off
Versions: 1 2 3 4 5 6 7 8 9 10 11 12 13 14 15 16 17 18 19 20 21 22 23 24 25 26 27 28 29 30 31 32 33 34 35 36 37 38 39 40 41 42 43 44 45 46 47 48 49 50

000
ASUS43 KDTX 251801
RWRMI
MICHIGAN HOURLY REGIONAL WEATHER ROUNDUP
NATIONAL WEATHER SERVICE DETROIT/PONTIAC MI
100 PM EST SUN JAN 25 2015

NOTE: "FAIR" INDICATES FEW OR NO CLOUDS BELOW 12,000 FEET WITH NO
SIGNIFICANT WEATHER AND/OR OBSTRUCTION TO VISIBILITY.

MIZ047>049-052>055-059>063-066>070-074>076-081>083-251900-
SOUTHEAST LOWER MICHIGAN

CITY           SKY/WX    TMP DP  RH WIND       PRES   REMARKS
ADRIAN         LGT SNOW  24  20  84 E16G23    29.86F FOG     WCI  11
6HR MIN TEMP:  24; 6HR MAX TEMP:  34; 6HR PCP: TRACE;

ALMA           PTSUNNY   21  13  71 NE18      29.96R WCI   6
ANN ARBOR      CLOUDY    25  16  68 NE13      29.88F WCI  14
BAD AXE        FLURRIES  20  12  69 E10G18    29.97R WCI   9
6HR MIN TEMP:  18; 6HR MAX TEMP:  21;

CARO           SUNNY     23  11  61 CALM      29.95S
DETROIT CITY   CLOUDY    25  15  66 NE10      29.91F WCI  15
6HR MIN TEMP:  25; 6HR MAX TEMP:  27;

DETROIT        CLOUDY    25  16  68 NE14G20   29.90F WCI  13
6HR MIN TEMP:  24; 6HR MAX TEMP:  28; 6HR PCP: TRACE;

FLINT          SUNNY     24  13  62 NE13      29.92S WCI  12
6HR MIN TEMP:  23; 6HR MAX TEMP:  26;

GROSSE ILE     CLOUDY    25  18  74 NE16      29.89F WCI  12
HILLSDALE      LGT SNOW  24  21  86 E15G21    29.81F WCI  12
6HR MIN TEMP:  24; 6HR MAX TEMP:  34;

HOWELL         CLOUDY    24  15  68 NE10      29.88S WCI  13

CITY           SKY/WX    TMP DP  RH WIND       PRES   REMARKS
JACKSON        CLOUDY    25  15  66 E13G20    29.85S WCI  14
6HR MIN TEMP:  25; 6HR MAX TEMP:  30; 6HR PCP: TRACE;

LAMBERTVILLE   LGT SNOW  27  19  74 E13G18    29.87S WCI  16
LANSING        CLOUDY    23  13  65 NE16      29.90F WCI  10
6HR MIN TEMP:  21; 6HR MAX TEMP:  24;

LAPEER         MOCLDY    22  12  64 NE10G18   29.93S WCI  11
MASON          CLOUDY    23  14  69 NE14      29.88F WCI  11
MONROE         LGT SNOW  25  19  80 NE12G17   29.87F WCI  14
MT. CLEMENS    PTSUNNY   24  16  69 E15       29.90R WCI  12
6HR MIN TEMP:  24; 6HR MAX TEMP:  25;

PONTIAC        PTSUNNY   23  14  68 NE15      29.88F WCI  10
6HR MIN TEMP:  21; 6HR MAX TEMP:  23;

PORT HOPE        N/A     20   9  62 E14       29.97R WCI   7
6HR MIN TEMP:  19; 6HR MAX TEMP:  21;

PORT HURON     PTSUNNY   21  14  73 N14G21    29.94S WCI   8
TRI CITIES     CLOUDY    22  11  62 NE16      29.97F WCI   8
6HR MIN TEMP:  18; 6HR MAX TEMP:  22; 6HR PCP: TRACE;

TROY           CLOUDY    27  16  62 NE9       29.92F WCI  18
SAGINAW HB     MOSUNNY   23  14  68 NE13      29.96S WCI  11
$$
MIZ043>046-050>051-056>058-064>065-071>073-077>080-251900-
SOUTHWEST LOWER MICHIGAN

CITY           SKY/WX    TMP DP  RH WIND       PRES   REMARKS
BATTLE CREEK   CLOUDY    27  14  58 NE18G25   29.84S WCI  14
6HR MIN TEMP:  27; 6HR MAX TEMP:  34; 6HR PCP: TRACE;

BENTON HARBOR  CLOUDY    26  23  88 NE13G23   29.81S FOG     WCI  15
6HR MIN TEMP:  26; 6HR MAX TEMP:  34; 6HR PCP: TRACE;

BIG RAPIDS     SUNNY     20   6  54 E10G17    29.94S WCI   9
6HR MIN TEMP:  14; 6HR MAX TEMP:  20;

COLDWATER      LGT SNOW  26  22  85 NE14G21   29.81S WCI  14
6HR MIN TEMP:  26; 6HR MAX TEMP:  33;

FREMONT        FAIR      22   2  43 E15       29.93S WCI   8
HOLLAND        CLOUDY    26  14  60 E14       29.88S WCI  14
6HR MIN TEMP:  26; 6HR MAX TEMP:  32;

GRAND RAPIDS   PTSUNNY   22  14  71 NE16      29.90S WCI   8
6HR MIN TEMP:  21; 6HR MAX TEMP:  27;

IONIA          MOCLDY    22  14  71 NE15G24   29.91S WCI   9
KALAMAZOO      LGT SNOW  27  19  72 NE12G17   29.84S WCI  17
6HR MIN TEMP:  26; 6HR MAX TEMP:  32; 6HR PCP: TRACE;

LUDINGTON      SUNNY     22   4  46 E9        29.97S WCI  12
6HR MIN TEMP:  16; 6HR MAX TEMP:  22;

MARSHALL       CLOUDY    25  17  71 NE8       29.84S WCI  17
MOUNT PLEASANT MOSUNNY   21  10  61 NE10G18   29.96S WCI  10
6HR MIN TEMP:  16; 6HR MAX TEMP:  22;

MUSKEGON       PTSUNNY   23  11  60 NE13G24   29.92S WCI  11
6HR MIN TEMP:  23; 6HR MAX TEMP:  28;

SOUTH HAVEN    CLOUDY    29  20  71 NE13G18   29.83S HAZE    WCI  18
$$
MIZ016>042-251900-
NORTHERN LOWER MICHIGAN

CITY           SKY/WX    TMP DP  RH WIND       PRES   REMARKS
ALPENA         PTSUNNY   15   4  61 N7        30.04R WCI   5
6HR MIN TEMP:   6; 6HR MAX TEMP:  15; 6HR PCP: TRACE;

BEAVER ISLAND  SUNNY     10  -4  53 CALM      30.06S
6HR MIN TEMP:   4; 6HR MAX TEMP:  10;

BELLAIRE       SUNNY     18   0  46 E5        30.03R WCI  11
6HR MIN TEMP:   4; 6HR MAX TEMP:  18;

CADILLAC       MOSUNNY   15   3  59 E9        29.93S WCI   3
CHARLEVOIX     SUNNY     14   4  64 NE6       30.07S WCI   5
6HR MIN TEMP:   4; 6HR MAX TEMP:  14;

FRANKFORT      MOSUNNY   18   2  50 E7        30.02S WCI   9
GAYLORD        SUNNY     14   2  58 E3        29.96S
6HR MIN TEMP:   2; 6HR MAX TEMP:  14;

GRAYLING       MOSUNNY   15   2  56 E7        29.97S WCI   5
HARBOR SPRINGS SUNNY     14   2  59 NE7       30.04S WCI   4
HOUGHTON LAKE  MOSUNNY   16   3  56 E9        29.96R WCI   4
6HR MIN TEMP:   6; 6HR MAX TEMP:  16;

MANISTEE       MOSUNNY   19   3  49 NE13      29.99S WCI   7
OSCODA         CLOUDY    19  10  67 E12       30.00F WCI   6
PELLSTON       SUNNY     15   3  59 CALM      30.05R
6HR MIN TEMP:  -9; 6HR MAX TEMP:  15;

ROGERS CITY    CLOUDY    14   8  76 SE3       30.06R
TRAVERSE CITY  PTSUNNY   15   4  61 N8        30.02S WCI   4
6HR MIN TEMP:   8; 6HR MAX TEMP:  15;

$$
MIZ007>008-015-251900-
EASTERN UPPER MICHIGAN

CITY           SKY/WX    TMP DP  RH WIND       PRES   REMARKS
KINROSS        SUNNY      9  -4  56 NE6       30.05R WCI  -1
6HR MIN TEMP:  -6; 6HR MAX TEMP:  10;

MACKINAC ISLAN SUNNY     12  -1  57 CALM      30.05S
6HR MIN TEMP:   3; 6HR MAX TEMP:  12;

S. S. MARIE    SUNNY      9  -5  53 NW6       30.05R WCI  -1
6HR MIN TEMP: -12; 6HR MAX TEMP:  10;

MUNISING         N/A     19  10  68 NE9       30.07S WCI   8
6HR MIN TEMP:  17; 6HR MAX TEMP:  19;

$$
MIZ004>006-011>014-085-251900-
CENTRAL UPPER MICHIGAN

CITY           SKY/WX    TMP DP  RH WIND       PRES   REMARKS
MANISTIQUE     MOSUNNY   17   6  63 NE7       30.06S WCI   7
ESCANABA       MOSUNNY   18   7  62 NE7       30.07R WCI   8
6HR MIN TEMP:  16; 6HR MAX TEMP:  18;

MENOMINEE      CLOUDY    19   9  63 E12G17    30.06S WCI   7
6HR MIN TEMP:  16; 6HR MAX TEMP:  19;

SAWYER-GWINN   LGT SNOW  16   9  73 NE8       30.02S WCI   5
$$
MIZ001>003-009>011-084-251900-
WESTERN UPPER MICHIGAN

CITY           SKY/WX    TMP DP  RH WIND       PRES   REMARKS
IRON MOUNTAIN  CLOUDY    17   7  64 E5        30.02S WCI  10
6HR MIN TEMP:  14; 6HR MAX TEMP:  18; 6HR PCP: TRACE;

HOUGHTON       CLOUDY    15   5  64 NE7       30.07R WCI   5
6HR MIN TEMP:  12; 6HR MAX TEMP:  15; 6HR PCP: TRACE;

COPPER HARBOR    N/A     17   7  64 E8        30.11R WCI   7
6HR MIN TEMP:  15; 6HR MAX TEMP:  17;

IRONWOOD       PTSUNNY   16   5  62 E7        30.01F WCI   6
6HR MIN TEMP:  12; 6HR MAX TEMP:  16;

$$

ABBREVIATIONS USED IN REMARKS
   TC - TEMPERATURE IN CELSIUS
  WCI - WIND CHILL INDEX
   HX - HEAT INDEX
  VSB - VISIBILITY




USA.gov is the U.S. government's official web portal to all federal, state and local government web resources and services.